Time,TemperatureF,DewpointF,PressureIn,WindDirection,WindDirectionDegrees,WindSpeedMPH,WindSpeedGustMPH,Humidity,HourlyPrecipIn,Conditions,Clouds,dailyrainin,SoftwareType,DateUTC
2013-12-19 00:02:00,44.8,41.7,30.20,East,84,0.0,0.0,89,0.00,,,0.00,meteohub,2013-12-19 06:02:00,
2013-12-19 00:07:00,44.8,41.7,30.19,East,84,0.0,0.0,89,0.00,,,0.00,meteohub,2013-12-19 06:07:00,
2013-12-19 00:12:00,44.4,41.4,30.19,East,84,0.0,0.0,89,0.00,,,0.00,meteohub,2013-12-19 06:12:00,
2013-12-19 00:17:00,44.4,41.7,30.19,East,84,0.0,0.0,90,0.00,,,0.00,meteohub,2013-12-19 06:17:00,
2013-12-19 00:22:00,44.2,41.5,30.19,East,84,0.0,0.0,90,0.00,,,0.00,meteohub,2013-12-19 06:22:00,
2013-12-19 00:27:00,44.2,41.5,30.19,East,84,0.0,0.0,90,0.00,,,0.00,meteohub,2013-12-19 06:27:00,
2013-12-19 00:32:00,44.1,41.4,30.19,East,84,0.0,0.0,90,0.00,,,0.00,meteohub,2013-12-19 06:32:00,
2013-12-19 00:37:00,43.9,41.2,30.18,East,84,0.0,0.0,90,0.00,,,0.00,meteohub,2013-12-19 06:37:00,
2013-12-19 00:42:00,43.9,41.2,30.18,East,84,0.0,0.0,90,0.00,,,0.00,meteohub,2013-12-19 06:42:00,
2013-12-19 00:47:00,43.7,41.0,30.18,East,84,0.0,0.0,90,0.00,,,0.00,meteohub,2013-12-19 06:47:00,
2013-12-19 00:52:00,43.7,41.2,30.18,East,84,0.0,0.0,91,0.00,,,0.00,meteohub,2013-12-19 06:52:00,
2013-12-19 00:57:00,43.5,41.0,30.18,East,84,0.0,0.0,91,0.00,,,0.00,meteohub,2013-12-19 06:57:00,
2013-12-19 01:02:00,43.5,41.0,30.18,East,84,0.0,0.0,91,0.00,,,0.00,meteohub,2013-12-19 07:02:00,
2013-12-19 01:07:00,43.7,41.5,30.18,East,84,0.0,0.0,92,0.00,,,0.00,meteohub,2013-12-19 07:07:00,
2013-12-19 01:12:00,43.7,41.5,30.18,East,84,0.0,0.0,92,0.00,,,0.00,meteohub,2013-12-19 07:12:00,
2013-12-19 01:17:00,43.9,41.7,30.18,East,84,0.0,0.0,92,0.00,,,0.00,meteohub,2013-12-19 07:17:00,
2013-12-19 01:22:00,43.9,41.7,30.18,East,84,0.0,0.0,92,0.00,,,0.00,meteohub,2013-12-19 07:22:00,
2013-12-19 01:27:00,44.1,41.9,30.17,East,84,0.0,0.0,92,0.00,,,0.00,meteohub,2013-12-19 07:27:00,
2013-12-19 01:32:00,44.2,42.1,30.17,East,84,0.0,0.0,92,0.00,,,0.00,meteohub,2013-12-19 07:32:00,
2013-12-19 01:37:00,44.4,42.3,30.17,East,84,0.0,0.0,92,0.00,,,0.00,meteohub,2013-12-19 07:37:00,
2013-12-19 01:42:00,44.6,42.4,30.17,East,84,0.0,0.0,92,0.00,,,0.00,meteohub,2013-12-19 07:42:00,
2013-12-19 01:47:00,44.8,42.6,30.17,East,84,0.0,0.0,92,0.00,,,0.00,meteohub,2013-12-19 07:47:00,
2013-12-19 01:52:00,45.0,42.8,30.17,East,84,0.0,0.0,92,0.00,,,0.00,meteohub,2013-12-19 07:52:00,
2013-12-19 01:57:00,45.1,43.0,30.17,East,84,0.0,0.0,92,0.00,,,0.00,meteohub,2013-12-19 07:57:00,
2013-12-19 02:02:00,45.3,43.3,30.17,East,84,0.0,0.0,93,0.00,,,0.00,meteohub,2013-12-19 08:02:00,
2013-12-19 02:07:00,45.3,43.3,30.17,East,84,0.0,0.0,93,0.00,,,0.00,meteohub,2013-12-19 08:07:00,
2013-12-19 02:12:00,45.7,43.7,30.17,East,84,0.0,0.0,93,0.00,,,0.00,meteohub,2013-12-19 08:12:00,
2013-12-19 02:17:00,45.9,43.9,30.17,East,84,0.0,0.0,93,0.00,,,0.00,meteohub,2013-12-19 08:17:00,
2013-12-19 02:22:00,46.0,44.1,30.17,East,84,0.0,0.0,93,0.00,,,0.00,meteohub,2013-12-19 08:22:00,
2013-12-19 02:27:00,46.2,44.2,30.17,East,84,0.0,0.0,93,0.00,,,0.00,meteohub,2013-12-19 08:27:00,
2013-12-19 02:32:00,46.4,44.4,30.17,East,84,0.0,0.0,93,0.00,,,0.00,meteohub,2013-12-19 08:32:00,
2013-12-19 02:37:00,46.6,44.4,30.17,East,84,0.0,0.0,92,0.00,,,0.00,meteohub,2013-12-19 08:37:00,
2013-12-19 02:42:00,46.8,44.8,30.17,East,84,0.0,0.0,93,0.00,,,0.00,meteohub,2013-12-19 08:42:00,
2013-12-19 02:47:00,46.8,44.6,30.16,East,84,0.0,0.0,92,0.00,,,0.00,meteohub,2013-12-19 08:47:00,
2013-12-19 02:52:00,46.9,44.8,30.17,East,84,0.0,0.0,92,0.00,,,0.00,meteohub,2013-12-19 08:52:00,
2013-12-19 02:57:00,47.1,45.0,30.17,East,84,0.0,0.0,92,0.00,,,0.00,meteohub,2013-12-19 08:57:00,
2013-12-19 03:02:00,47.1,45.0,30.17,East,84,0.0,0.0,92,0.00,,,0.00,meteohub,2013-12-19 09:02:00,
2013-12-19 03:07:00,47.3,45.1,30.16,East,84,0.0,0.0,92,0.00,,,0.00,meteohub,2013-12-19 09:07:00,
2013-12-19 03:12:00,47.5,45.3,30.16,East,84,0.0,0.0,92,0.00,,,0.00,meteohub,2013-12-19 09:12:00,
2013-12-19 03:17:00,47.5,45.3,30.16,East,84,0.0,0.0,92,0.00,,,0.00,meteohub,2013-12-19 09:17:00,
2013-12-19 03:22:00,47.7,45.5,30.16,East,84,0.0,0.0,92,0.00,,,0.00,meteohub,2013-12-19 09:22:00,
2013-12-19 03:27:00,47.7,45.5,30.16,East,84,0.0,0.0,92,0.00,,,0.00,meteohub,2013-12-19 09:27:00,
2013-12-19 03:32:00,47.8,45.7,30.15,East,84,0.0,0.0,92,0.00,,,0.00,meteohub,2013-12-19 09:32:00,
2013-12-19 03:37:00,47.8,45.7,30.15,East,84,0.0,0.0,92,0.00,,,0.00,meteohub,2013-12-19 09:37:00,
2013-12-19 03:42:00,47.8,45.7,30.15,East,84,0.0,0.0,92,0.00,,,0.00,meteohub,2013-12-19 09:42:00,
2013-12-19 03:47:00,48.0,45.9,30.15,East,84,0.0,0.0,92,0.00,,,0.00,meteohub,2013-12-19 09:47:00,
2013-12-19 03:52:00,48.0,45.9,30.15,East,84,0.0,0.0,92,0.00,,,0.00,meteohub,2013-12-19 09:52:00,
2013-12-19 03:57:00,48.0,45.9,30.15,East,84,0.0,0.0,92,0.00,,,0.00,meteohub,2013-12-19 09:57:00,
2013-12-19 04:02:00,48.0,45.9,30.15,East,84,0.0,0.0,92,0.00,,,0.00,meteohub,2013-12-19 10:02:00,
2013-12-19 04:07:00,48.2,47.1,30.15,East,84,0.0,0.0,96,0.00,,,0.00,meteohub,2013-12-19 10:07:00,
2013-12-19 04:12:00,48.4,46.2,30.15,East,84,0.0,1.0,92,0.00,,,0.00,meteohub,2013-12-19 10:12:00,
2013-12-19 04:17:00,48.2,46.0,30.15,East,84,0.0,1.0,92,0.00,,,0.00,meteohub,2013-12-19 10:17:00,
2013-12-19 04:22:00,48.4,46.2,30.15,East,84,0.0,1.0,92,0.00,,,0.00,meteohub,2013-12-19 10:22:00,
2013-12-19 04:27:00,48.4,46.2,30.15,East,84,0.0,1.0,92,0.00,,,0.00,meteohub,2013-12-19 10:27:00,
2013-12-19 04:32:00,48.4,46.2,30.15,East,84,0.0,1.0,92,0.00,,,0.00,meteohub,2013-12-19 10:32:00,
2013-12-19 04:37:00,48.4,46.2,30.15,East,84,0.0,0.0,92,0.00,,,0.00,meteohub,2013-12-19 10:37:00,
2013-12-19 04:42:00,48.6,46.4,30.14,East,84,0.0,1.0,92,0.00,,,0.00,meteohub,2013-12-19 10:42:00,
2013-12-19 04:47:00,48.6,46.4,30.14,East,84,0.0,1.0,92,0.00,,,0.00,meteohub,2013-12-19 10:47:00,
2013-12-19 04:52:00,48.7,46.6,30.14,East,84,0.0,2.0,92,0.00,,,0.00,meteohub,2013-12-19 10:52:00,
2013-12-19 04:57:00,48.7,46.6,30.14,East,84,0.0,2.0,92,0.00,,,0.00,meteohub,2013-12-19 10:57:00,
2013-12-19 05:02:00,48.7,46.6,30.14,East,84,2.0,2.0,92,0.00,,,0.00,meteohub,2013-12-19 11:02:00,
2013-12-19 05:07:00,48.9,46.8,30.14,East,84,1.0,2.0,92,0.00,,,0.00,meteohub,2013-12-19 11:07:00,
2013-12-19 05:12:00,48.9,46.8,30.14,East,84,0.0,2.0,92,0.00,,,0.00,meteohub,2013-12-19 11:12:00,
2013-12-19 05:17:00,48.9,46.8,30.14,East,84,0.0,2.0,92,0.00,,,0.00,meteohub,2013-12-19 11:17:00,
2013-12-19 05:22:00,49.1,46.9,30.14,East,84,0.0,2.0,92,0.00,,,0.00,meteohub,2013-12-19 11:22:00,
2013-12-19 05:27:00,49.3,47.3,30.14,East,84,0.0,2.0,93,0.00,,,0.00,meteohub,2013-12-19 11:27:00,
2013-12-19 05:32:00,49.3,47.1,30.15,East,84,0.0,1.0,92,0.00,,,0.00,meteohub,2013-12-19 11:32:00,
2013-12-19 05:37:00,49.3,47.1,30.14,East,84,0.0,0.0,92,0.00,,,0.00,meteohub,2013-12-19 11:37:00,
2013-12-19 05:42:00,49.5,47.5,30.14,East,84,0.0,0.0,93,0.00,,,0.00,meteohub,2013-12-19 11:42:00,
2013-12-19 05:47:00,49.5,47.5,30.14,East,84,0.0,0.0,93,0.00,,,0.00,meteohub,2013-12-19 11:47:00,
2013-12-19 05:52:00,49.5,47.5,30.14,East,84,0.0,0.0,93,0.00,,,0.00,meteohub,2013-12-19 11:52:00,
2013-12-19 05:57:00,49.6,47.7,30.15,East,84,0.0,0.0,93,0.00,,,0.00,meteohub,2013-12-19 11:57:00,
2013-12-19 06:02:00,49.6,47.7,30.15,East,84,0.0,0.0,93,0.00,,,0.00,meteohub,2013-12-19 12:02:00,
2013-12-19 06:07:00,49.6,47.7,30.15,East,84,0.0,0.0,93,0.00,,,0.00,meteohub,2013-12-19 12:07:00,
2013-12-19 06:12:00,49.8,47.8,30.15,East,84,0.0,0.0,93,0.00,,,0.00,meteohub,2013-12-19 12:12:00,
2013-12-19 06:17:00,50.0,48.4,30.15,East,84,0.0,0.0,94,0.00,,,0.00,meteohub,2013-12-19 12:17:00,
2013-12-19 06:22:00,50.2,48.6,30.15,East,84,0.0,0.0,94,0.00,,,0.00,meteohub,2013-12-19 12:22:00,
2013-12-19 06:27:00,50.4,48.7,30.15,East,84,0.0,0.0,94,0.00,,,0.00,meteohub,2013-12-19 12:27:00,
2013-12-19 06:32:00,50.4,48.7,30.15,East,84,0.0,0.0,94,0.00,,,0.00,meteohub,2013-12-19 12:32:00,
2013-12-19 06:37:00,50.5,48.9,30.15,East,84,0.0,0.0,94,0.00,,,0.00,meteohub,2013-12-19 12:37:00,
2013-12-19 06:42:00,50.5,48.9,30.15,East,84,0.0,0.0,94,0.00,,,0.00,meteohub,2013-12-19 12:42:00,
2013-12-19 06:47:00,50.7,49.1,30.15,East,84,0.0,0.0,94,0.00,,,0.00,meteohub,2013-12-19 12:47:00,
2013-12-19 06:52:00,50.9,49.3,30.14,East,84,0.0,0.0,94,0.00,,,0.00,meteohub,2013-12-19 12:52:00,
2013-12-19 06:57:00,50.9,49.3,30.15,East,84,0.0,0.0,94,0.00,,,0.00,meteohub,2013-12-19 12:57:00,
2013-12-19 07:02:00,51.1,49.5,30.15,East,84,0.0,0.0,94,0.00,,,0.00,meteohub,2013-12-19 13:02:00,
2013-12-19 07:07:00,51.1,49.1,30.15,East,84,0.0,0.0,93,0.00,,,0.00,meteohub,2013-12-19 13:07:00,
2013-12-19 07:12:00,51.3,49.3,30.15,East,84,0.0,0.0,93,0.00,,,0.00,meteohub,2013-12-19 13:12:00,
2013-12-19 07:17:00,51.3,49.6,30.15,East,84,0.0,0.0,94,0.00,,,0.00,meteohub,2013-12-19 13:17:00,
2013-12-19 07:22:00,51.4,49.8,30.15,East,84,0.0,0.0,94,0.00,,,0.00,meteohub,2013-12-19 13:22:00,
2013-12-19 07:27:00,51.4,49.8,30.15,East,84,0.0,0.0,94,0.00,,,0.00,meteohub,2013-12-19 13:27:00,
2013-12-19 07:32:00,51.6,50.0,30.16,East,84,0.0,0.0,94,0.00,,,0.00,meteohub,2013-12-19 13:32:00,
2013-12-19 07:37:00,51.8,50.2,30.16,East,84,0.0,0.0,94,0.00,,,0.00,meteohub,2013-12-19 13:37:00,
2013-12-19 07:42:00,52.0,50.4,30.16,East,84,0.0,0.0,94,0.00,,,0.00,meteohub,2013-12-19 13:42:00,
2013-12-19 07:47:00,52.2,50.5,30.16,East,84,0.0,0.0,94,0.00,,,0.00,meteohub,2013-12-19 13:47:00,
2013-12-19 07:52:00,52.3,50.7,30.16,East,84,0.0,0.0,94,0.00,,,0.00,meteohub,2013-12-19 13:52:00,
2013-12-19 07:57:00,52.3,50.7,30.16,East,84,0.0,0.0,94,0.00,,,0.00,meteohub,2013-12-19 13:57:00,
2013-12-19 08:02:00,52.5,50.9,30.16,East,84,0.0,0.0,94,0.00,,,0.00,meteohub,2013-12-19 14:02:00,
2013-12-19 08:07:00,52.9,51.3,30.17,East,84,0.0,0.0,94,0.00,,,0.00,meteohub,2013-12-19 14:07:00,
2013-12-19 08:12:00,53.1,51.4,30.16,East,84,0.0,0.0,94,0.00,,,0.00,meteohub,2013-12-19 14:12:00,
2013-12-19 08:17:00,53.2,51.6,30.16,East,84,0.0,0.0,94,0.00,,,0.00,meteohub,2013-12-19 14:17:00,
2013-12-19 08:22:00,53.6,52.0,30.16,East,84,0.0,0.0,94,0.00,,,0.00,meteohub,2013-12-19 14:22:00,
2013-12-19 08:27:00,54.0,52.3,30.16,East,84,0.0,0.0,94,0.00,,,0.00,meteohub,2013-12-19 14:27:00,
2013-12-19 08:32:00,54.1,52.5,30.16,East,84,0.0,0.0,94,0.00,,,0.00,meteohub,2013-12-19 14:32:00,
2013-12-19 08:37:00,54.7,53.1,30.17,East,84,0.0,0.0,94,0.00,,,0.00,meteohub,2013-12-19 14:37:00,
2013-12-19 08:42:00,54.9,53.2,30.16,East,84,0.0,0.0,94,0.00,,,0.00,meteohub,2013-12-19 14:42:00,
2013-12-19 08:47:00,55.2,53.2,30.16,East,84,0.0,0.0,93,0.00,,,0.00,meteohub,2013-12-19 14:47:00,
2013-12-19 08:52:00,55.6,53.6,30.16,East,84,0.0,0.0,93,0.00,,,0.00,meteohub,2013-12-19 14:52:00,
2013-12-19 08:57:00,55.9,54.0,30.17,East,84,0.0,0.0,93,0.00,,,0.00,meteohub,2013-12-19 14:57:00,
2013-12-19 09:02:00,56.5,54.1,30.17,SE,131,0.0,0.0,92,0.00,,,0.00,meteohub,2013-12-19 15:02:00,
2013-12-19 09:07:00,56.8,54.5,30.17,SE,130,0.0,2.0,92,0.00,,,0.00,meteohub,2013-12-19 15:07:00,
2013-12-19 09:12:00,57.4,55.0,30.17,SE,130,0.0,5.0,92,0.00,,,0.00,meteohub,2013-12-19 15:12:00,
2013-12-19 09:17:00,57.9,55.2,30.17,SE,130,0.0,5.0,91,0.00,,,0.00,meteohub,2013-12-19 15:17:00,
2013-12-19 09:22:00,58.6,55.8,30.16,SE,129,0.0,4.0,90,0.00,,,0.00,meteohub,2013-12-19 15:22:00,
2013-12-19 09:27:00,59.4,56.5,30.16,SE,129,0.0,4.0,90,0.00,,,0.00,meteohub,2013-12-19 15:27:00,
2013-12-19 09:32:00,60.1,56.8,30.17,SE,129,2.0,4.0,89,0.00,,,0.00,meteohub,2013-12-19 15:32:00,
2013-12-19 09:37:00,60.6,57.0,30.17,SE,144,4.0,6.0,88,0.00,,,0.00,meteohub,2013-12-19 15:37:00,
2013-12-19 09:42:00,61.3,57.4,30.16,SE,138,1.0,6.0,87,0.00,,,0.00,meteohub,2013-12-19 15:42:00,
2013-12-19 09:47:00,62.2,58.3,30.16,SE,138,1.0,6.0,87,0.00,,,0.00,meteohub,2013-12-19 15:47:00,
2013-12-19 09:52:00,63.0,58.5,30.16,SE,137,4.0,6.0,85,0.00,,,0.00,meteohub,2013-12-19 15:52:00,
2013-12-19 09:57:00,63.7,58.8,30.17,SE,134,4.0,5.0,84,0.00,,,0.00,meteohub,2013-12-19 15:57:00,
2013-12-19 10:02:00,64.4,59.2,30.17,SE,140,0.0,7.0,83,0.00,,,0.00,meteohub,2013-12-19 16:02:00,
2013-12-19 10:07:00,64.9,59.0,30.16,SSE,153,5.0,7.0,81,0.00,,,0.00,meteohub,2013-12-19 16:07:00,
2013-12-19 10:12:00,65.1,59.2,30.16,SE,126,0.0,8.0,81,0.00,,,0.00,meteohub,2013-12-19 16:12:00,
2013-12-19 10:17:00,65.8,59.9,30.16,SE,129,7.0,9.0,81,0.00,,,0.00,meteohub,2013-12-19 16:17:00,
2013-12-19 10:22:00,66.4,60.1,30.16,SE,138,0.0,9.0,80,0.00,,,0.00,meteohub,2013-12-19 16:22:00,
2013-12-19 10:27:00,67.1,60.4,30.16,SE,140,4.0,9.0,79,0.00,,,0.00,meteohub,2013-12-19 16:27:00,
2013-12-19 10:32:00,67.8,60.3,30.15,SE,135,0.0,7.0,77,0.00,,,0.00,meteohub,2013-12-19 16:32:00,
2013-12-19 10:37:00,68.2,60.3,30.15,SE,131,1.0,7.0,76,0.00,,,0.00,meteohub,2013-12-19 16:37:00,
2013-12-19 10:42:00,68.5,60.6,30.15,ESE,119,4.0,7.0,76,0.00,,,0.00,meteohub,2013-12-19 16:42:00,
2013-12-19 10:47:00,69.1,61.2,30.14,SE,134,6.0,7.0,76,0.00,,,0.00,meteohub,2013-12-19 16:47:00,
2013-12-19 10:52:00,69.6,61.0,30.14,SSE,159,0.0,6.0,74,0.00,,,0.00,meteohub,2013-12-19 16:52:00,
2013-12-19 10:57:00,70.2,61.2,30.14,SE,138,4.0,6.0,73,0.00,,,0.00,meteohub,2013-12-19 16:57:00,
2013-12-19 11:02:00,70.2,60.6,30.14,South,171,2.0,9.0,72,0.00,,,0.00,meteohub,2013-12-19 17:02:00,
2013-12-19 11:07:00,70.2,61.2,30.14,SE,138,5.0,9.0,73,0.00,,,0.00,meteohub,2013-12-19 17:07:00,
2013-12-19 11:12:00,70.2,61.2,30.14,SE,126,1.0,8.0,73,0.00,,,0.00,meteohub,2013-12-19 17:12:00,
2013-12-19 11:17:00,70.2,60.6,30.14,SE,146,4.0,7.0,72,0.00,,,0.00,meteohub,2013-12-19 17:17:00,
2013-12-19 11:22:00,70.2,61.2,30.13,South,188,2.0,8.0,73,0.00,,,0.00,meteohub,2013-12-19 17:22:00,
2013-12-19 11:27:00,70.3,60.8,30.13,SSE,161,2.0,8.0,72,0.00,,,0.00,meteohub,2013-12-19 17:27:00,
2013-12-19 11:32:00,70.5,61.0,30.12,SSE,147,1.0,8.0,72,0.00,,,0.00,meteohub,2013-12-19 17:32:00,
2013-12-19 11:37:00,71.1,61.2,30.12,SSE,148,4.0,8.0,71,0.00,,,0.00,meteohub,2013-12-19 17:37:00,
2013-12-19 11:42:00,71.2,61.0,30.12,SE,124,6.0,9.0,70,0.00,,,0.00,meteohub,2013-12-19 17:42:00,
2013-12-19 11:47:00,71.8,60.6,30.12,SSE,155,6.0,11.0,68,0.00,,,0.00,meteohub,2013-12-19 17:47:00,
2013-12-19 11:52:00,72.1,60.6,30.11,SE,140,4.0,12.0,67,0.00,,,0.00,meteohub,2013-12-19 17:52:00,
2013-12-19 11:57:00,72.3,60.3,30.11,South,170,2.0,12.0,66,0.00,,,0.00,meteohub,2013-12-19 17:57:00,
2013-12-19 12:02:00,72.3,60.3,30.11,SE,140,5.0,12.0,66,0.00,,,0.00,meteohub,2013-12-19 18:02:00,
2013-12-19 12:06:00,72.1,60.1,30.10,ESE,111,7.0,13.0,66,0.00,,,0.00,meteohub,2013-12-19 18:06:00,
2013-12-19 12:11:00,72.1,60.6,30.09,ESE,113,6.0,13.0,67,0.00,,,0.00,meteohub,2013-12-19 18:11:00,
2013-12-19 12:16:00,72.1,60.6,30.09,South,185,5.0,13.0,67,0.00,,,0.00,meteohub,2013-12-19 18:16:00,
2013-12-19 12:21:00,72.0,60.4,30.09,SE,138,13.0,13.0,67,0.00,,,0.00,meteohub,2013-12-19 18:21:00,
2013-12-19 12:26:00,72.0,60.4,30.09,South,181,2.0,16.0,67,0.00,,,0.00,meteohub,2013-12-19 18:26:00,
2013-12-19 12:31:00,72.0,59.9,30.08,South,176,5.0,16.0,66,0.00,,,0.00,meteohub,2013-12-19 18:31:00,
2013-12-19 12:36:00,72.0,59.9,30.08,South,172,6.0,16.0,66,0.00,,,0.00,meteohub,2013-12-19 18:36:00,
2013-12-19 12:41:00,72.1,59.7,30.08,South,180,7.0,13.0,65,0.00,,,0.00,meteohub,2013-12-19 18:41:00,
2013-12-19 12:46:00,72.1,59.7,30.08,SE,136,5.0,15.0,65,0.00,,,0.00,meteohub,2013-12-19 18:46:00,
2013-12-19 12:51:00,72.3,59.9,30.08,SE,130,4.0,15.0,65,0.00,,,0.00,meteohub,2013-12-19 18:51:00,
2013-12-19 12:56:00,72.3,60.3,30.07,SSE,150,1.0,11.0,66,0.00,,,0.00,meteohub,2013-12-19 18:56:00,
2013-12-19 13:02:00,72.7,59.4,30.07,SSE,154,9.0,13.0,63,0.00,,,0.00,meteohub,2013-12-19 19:02:00,
2013-12-19 13:07:00,72.7,58.8,30.07,SE,126,8.0,13.0,62,0.00,,,0.00,meteohub,2013-12-19 19:07:00,
2013-12-19 13:12:00,72.7,57.9,30.07,SSE,158,5.0,15.0,60,0.00,,,0.00,meteohub,2013-12-19 19:12:00,
2013-12-19 13:17:00,72.9,58.1,30.07,South,184,1.0,15.0,60,0.00,,,0.00,meteohub,2013-12-19 19:17:00,
2013-12-19 13:22:00,73.0,58.3,30.06,South,190,4.0,14.0,60,0.00,,,0.00,meteohub,2013-12-19 19:22:00,
2013-12-19 13:27:00,73.0,57.9,30.06,SE,134,4.0,13.0,59,0.00,,,0.00,meteohub,2013-12-19 19:27:00,
2013-12-19 13:32:00,73.2,58.1,30.06,SSE,157,11.0,13.0,59,0.00,,,0.00,meteohub,2013-12-19 19:32:00,
2013-12-19 13:37:00,73.2,58.5,30.06,South,182,4.0,13.0,60,0.00,,,0.00,meteohub,2013-12-19 19:37:00,
2013-12-19 13:42:00,73.4,58.6,30.06,South,180,4.0,13.0,60,0.00,,,0.00,meteohub,2013-12-19 19:42:00,
2013-12-19 13:47:00,73.4,59.2,30.06,South,181,7.0,18.0,61,0.00,,,0.00,meteohub,2013-12-19 19:47:00,
2013-12-19 13:52:00,73.4,59.2,30.05,WSW,245,8.0,18.0,61,0.00,,,0.00,meteohub,2013-12-19 19:52:00,
2013-12-19 13:57:00,73.0,58.8,30.05,SSE,167,6.0,12.0,61,0.00,,,0.00,meteohub,2013-12-19 19:57:00,
2013-12-19 14:02:00,72.9,59.0,30.04,South,188,5.0,13.0,62,0.00,,,0.00,meteohub,2013-12-19 20:02:00,
2013-12-19 14:07:00,72.7,59.4,30.04,South,189,3.0,14.0,63,0.00,,,0.00,meteohub,2013-12-19 20:07:00,
2013-12-19 14:12:00,72.5,59.2,30.04,SSE,148,7.0,14.0,63,0.00,,,0.00,meteohub,2013-12-19 20:12:00,
2013-12-19 14:17:00,72.3,59.5,30.04,SSE,154,6.0,14.0,64,0.00,,,0.00,meteohub,2013-12-19 20:17:00,
2013-12-19 14:22:00,72.3,59.5,30.04,South,178,1.0,11.0,64,0.00,,,0.00,meteohub,2013-12-19 20:22:00,
2013-12-19 14:27:00,72.1,59.7,30.04,SSE,149,2.0,11.0,65,0.00,,,0.00,meteohub,2013-12-19 20:27:00,
2013-12-19 14:32:00,72.1,59.7,30.04,SE,139,0.0,10.0,65,0.00,,,0.00,meteohub,2013-12-19 20:32:00,
2013-12-19 14:37:00,72.1,59.7,30.04,SSW,209,7.0,12.0,65,0.00,,,0.00,meteohub,2013-12-19 20:37:00,
2013-12-19 14:42:00,72.3,59.9,30.04,SE,138,5.0,12.0,65,0.00,,,0.00,meteohub,2013-12-19 20:42:00,
2013-12-19 14:47:00,72.3,59.9,30.04,SSE,151,1.0,12.0,65,0.00,,,0.00,meteohub,2013-12-19 20:47:00,
2013-12-19 14:52:00,72.5,60.1,30.04,SE,146,4.0,12.0,65,0.00,,,0.00,meteohub,2013-12-19 20:52:00,
2013-12-19 14:57:00,72.9,59.5,30.04,South,188,3.0,10.0,63,0.00,,,0.00,meteohub,2013-12-19 20:57:00,
2013-12-19 15:02:00,73.0,59.2,30.04,South,171,9.0,13.0,62,0.00,,,0.00,meteohub,2013-12-19 21:02:00,
2013-12-19 15:07:00,72.9,59.5,30.04,South,181,3.0,13.0,63,0.00,,,0.00,meteohub,2013-12-19 21:07:00,
2013-12-19 15:12:00,72.7,59.4,30.04,SSW,198,1.0,13.0,63,0.00,,,0.00,meteohub,2013-12-19 21:12:00,
2013-12-19 15:17:00,72.5,59.2,30.04,South,173,7.0,11.0,63,0.00,,,0.00,meteohub,2013-12-19 21:17:00,
2013-12-19 15:22:00,72.3,59.0,30.04,SSW,205,3.0,11.0,63,0.00,,,0.00,meteohub,2013-12-19 21:22:00,
2013-12-19 15:27:00,72.3,59.0,30.03,SE,140,4.0,11.0,63,0.00,,,0.00,meteohub,2013-12-19 21:27:00,
2013-12-19 15:32:00,72.3,59.0,30.03,SSE,164,1.0,12.0,63,0.00,,,0.00,meteohub,2013-12-19 21:32:00,
2013-12-19 15:38:00,72.1,58.8,30.03,SSW,206,3.0,12.0,63,0.00,,,0.00,meteohub,2013-12-19 21:38:00,
2013-12-19 15:43:00,72.1,58.8,30.03,South,169,2.0,12.0,63,0.00,,,0.00,meteohub,2013-12-19 21:43:00,
2013-12-19 15:48:00,72.0,58.6,30.03,SSE,157,0.0,9.0,63,0.00,,,0.00,meteohub,2013-12-19 21:48:00,
2013-12-19 15:53:00,72.0,59.2,30.03,South,169,1.0,9.0,64,0.00,,,0.00,meteohub,2013-12-19 21:53:00,
2013-12-19 15:58:00,72.0,59.2,30.03,SSE,154,4.0,9.0,64,0.00,,,0.00,meteohub,2013-12-19 21:58:00,
2013-12-19 16:03:00,71.8,59.0,30.03,SSE,167,1.0,9.0,64,0.00,,,0.00,meteohub,2013-12-19 22:03:00,
2013-12-19 16:08:00,71.6,59.2,30.03,SSE,163,0.0,9.0,65,0.00,,,0.00,meteohub,2013-12-19 22:08:00,
2013-12-19 16:13:00,71.6,59.2,30.03,SSE,157,2.0,9.0,65,0.00,,,0.00,meteohub,2013-12-19 22:13:00,
2013-12-19 16:18:00,71.4,59.0,30.03,ESE,110,6.0,9.0,65,0.00,,,0.00,meteohub,2013-12-19 22:18:00,
2013-12-19 16:23:00,71.4,59.5,30.02,SE,134,4.0,8.0,66,0.00,,,0.00,meteohub,2013-12-19 22:23:00,
2013-12-19 16:28:00,71.2,59.4,30.03,SE,135,0.0,9.0,66,0.00,,,0.00,meteohub,2013-12-19 22:28:00,
2013-12-19 16:33:00,71.2,59.4,30.02,SE,128,6.0,11.0,66,0.00,,,0.00,meteohub,2013-12-19 22:33:00,
2013-12-19 16:38:00,71.1,59.5,30.02,SSE,154,1.0,11.0,67,0.00,,,0.00,meteohub,2013-12-19 22:38:00,
2013-12-19 16:43:00,70.9,59.4,30.03,ESE,121,0.0,11.0,67,0.00,,,0.00,meteohub,2013-12-19 22:43:00,
2013-12-19 16:48:00,70.9,59.4,30.03,SE,139,2.0,7.0,67,0.00,,,0.00,meteohub,2013-12-19 22:48:00,
2013-12-19 16:53:00,70.5,59.4,30.02,SE,128,5.0,7.0,68,0.00,,,0.00,meteohub,2013-12-19 22:53:00,
2013-12-19 16:58:00,70.5,59.4,30.03,SE,132,6.0,7.0,68,0.00,,,0.00,meteohub,2013-12-19 22:58:00,
2013-12-19 17:03:00,70.3,59.4,30.03,ESE,121,2.0,8.0,68,0.00,,,0.00,meteohub,2013-12-19 23:03:00,
2013-12-19 17:08:00,70.3,59.7,30.03,ESE,118,1.0,8.0,69,0.00,,,0.00,meteohub,2013-12-19 23:08:00,
2013-12-19 17:13:00,70.2,59.5,30.03,SE,130,2.0,9.0,69,0.00,,,0.00,meteohub,2013-12-19 23:13:00,
2013-12-19 17:19:00,70.0,59.4,30.03,ESE,116,6.0,9.0,69,0.00,,,0.00,meteohub,2013-12-19 23:19:00,
2013-12-19 17:24:00,70.0,59.7,30.03,ESE,123,2.0,9.0,70,0.00,,,0.00,meteohub,2013-12-19 23:24:00,
2013-12-19 17:29:00,69.8,59.5,30.03,SE,141,0.0,8.0,70,0.00,,,0.00,meteohub,2013-12-19 23:29:00,
2013-12-19 17:34:00,69.6,59.4,30.03,SSE,155,2.0,8.0,70,0.00,,,0.00,meteohub,2013-12-19 23:34:00,
2013-12-19 17:39:00,69.6,59.4,30.03,South,175,2.0,8.0,70,0.00,,,0.00,meteohub,2013-12-19 23:39:00,
2013-12-19 17:44:00,69.4,59.5,30.04,SSE,147,4.0,8.0,71,0.00,,,0.00,meteohub,2013-12-19 23:44:00,
2013-12-19 17:49:00,69.4,59.5,30.04,SSE,163,2.0,8.0,71,0.00,,,0.00,meteohub,2013-12-19 23:49:00,
2013-12-19 17:54:00,69.4,59.5,30.04,SSE,149,6.0,6.0,71,0.00,,,0.00,meteohub,2013-12-19 23:54:00,
2013-12-19 17:59:00,69.3,59.5,30.04,SE,144,2.0,7.0,71,0.00,,,0.00,meteohub,2013-12-19 23:59:00,
2013-12-19 18:04:00,69.3,59.5,30.04,SE,130,4.0,8.0,71,0.00,,,0.00,meteohub,2013-12-20 00:04:00,
2013-12-19 18:09:00,69.1,59.7,30.04,SSE,148,4.0,8.0,72,0.00,,,0.00,meteohub,2013-12-20 00:09:00,
2013-12-19 18:14:00,69.1,59.7,30.03,SE,130,4.0,7.0,72,0.00,,,0.00,meteohub,2013-12-20 00:14:00,
2013-12-19 18:19:00,68.7,59.4,30.03,SE,144,4.0,6.0,72,0.00,,,0.00,meteohub,2013-12-20 00:19:00,
2013-12-19 18:24:00,68.7,59.7,30.04,SE,144,2.0,6.0,73,0.00,,,0.00,meteohub,2013-12-20 00:24:00,
2013-12-19 18:29:00,68.7,59.7,30.04,SE,138,0.0,7.0,73,0.00,,,0.00,meteohub,2013-12-20 00:29:00,
2013-12-19 18:34:00,68.5,59.5,30.04,SE,138,7.0,7.0,73,0.00,,,0.00,meteohub,2013-12-20 00:34:00,
2013-12-19 18:39:00,68.5,59.9,30.05,ESE,119,2.0,7.0,74,0.00,,,0.00,meteohub,2013-12-20 00:39:00,
2013-12-19 18:44:00,68.4,59.7,30.04,SSE,165,2.0,7.0,74,0.00,,,0.00,meteohub,2013-12-20 00:44:00,
2013-12-19 18:49:00,68.4,59.7,30.04,ESE,121,6.0,7.0,74,0.00,,,0.00,meteohub,2013-12-20 00:49:00,
2013-12-19 18:54:00,68.4,60.1,30.05,ESE,117,4.0,8.0,75,0.00,,,0.00,meteohub,2013-12-20 00:54:00,
2013-12-19 19:00:00,68.4,60.1,30.04,ESE,120,0.0,8.0,75,0.00,,,0.00,meteohub,2013-12-20 01:00:00,
2013-12-19 19:05:00,68.2,59.9,30.04,SE,134,5.0,8.0,75,0.00,,,0.00,meteohub,2013-12-20 01:05:00,
2013-12-19 19:10:00,68.2,60.3,30.04,SE,134,4.0,8.0,76,0.00,,,0.00,meteohub,2013-12-20 01:10:00,
2013-12-19 19:15:00,68.0,60.1,30.04,SE,129,2.0,9.0,76,0.00,,,0.00,meteohub,2013-12-20 01:15:00,
2013-12-19 19:20:00,67.8,59.9,30.04,SE,126,5.0,9.0,76,0.00,,,0.00,meteohub,2013-12-20 01:20:00,
2013-12-19 19:25:00,67.8,59.9,30.04,SE,130,2.0,8.0,76,0.00,,,0.00,meteohub,2013-12-20 01:25:00,
2013-12-19 19:30:00,67.8,59.9,30.04,ESE,119,2.0,7.0,76,0.00,,,0.00,meteohub,2013-12-20 01:30:00,
2013-12-19 19:35:00,67.6,60.3,30.04,SE,133,2.0,7.0,77,0.00,,,0.00,meteohub,2013-12-20 01:35:00,
2013-12-19 19:40:00,67.6,60.3,30.04,SE,138,1.0,6.0,77,0.00,,,0.00,meteohub,2013-12-20 01:40:00,
2013-12-19 19:45:00,67.5,60.1,30.04,SE,129,1.0,6.0,77,0.00,,,0.00,meteohub,2013-12-20 01:45:00,
2013-12-19 19:50:00,67.5,60.1,30.04,SE,129,1.0,6.0,77,0.00,,,0.00,meteohub,2013-12-20 01:50:00,
2013-12-19 19:55:00,67.3,60.3,30.04,SE,129,0.0,6.0,78,0.00,,,0.00,meteohub,2013-12-20 01:55:00,
2013-12-19 20:00:00,66.9,59.9,30.04,SE,124,1.0,5.0,78,0.00,,,0.00,meteohub,2013-12-20 02:00:00,
2013-12-19 20:05:00,66.9,60.3,30.04,SE,124,2.0,6.0,79,0.00,,,0.00,meteohub,2013-12-20 02:05:00,
2013-12-19 20:10:00,66.7,60.1,30.04,SE,126,2.0,6.0,79,0.00,,,0.00,meteohub,2013-12-20 02:10:00,
2013-12-19 20:15:00,66.6,59.9,30.04,ESE,123,7.0,8.0,79,0.00,,,0.00,meteohub,2013-12-20 02:15:00,
2013-12-19 20:20:00,66.6,59.9,30.04,ESE,114,4.0,8.0,79,0.00,,,0.00,meteohub,2013-12-20 02:20:00,
2013-12-19 20:25:00,66.4,60.1,30.04,SE,134,4.0,8.0,80,0.00,,,0.00,meteohub,2013-12-20 02:25:00,
2013-12-19 20:30:00,66.2,60.3,30.04,SE,137,2.0,8.0,81,0.00,,,0.00,meteohub,2013-12-20 02:30:00,
2013-12-19 20:36:00,66.0,60.1,30.04,SE,128,5.0,9.0,81,0.00,,,0.00,meteohub,2013-12-20 02:36:00,
2013-12-19 20:41:00,66.0,60.1,30.04,ESE,107,5.0,9.0,81,0.00,,,0.00,meteohub,2013-12-20 02:41:00,
2013-12-19 20:46:00,66.0,60.1,30.04,SE,133,9.0,9.0,81,0.00,,,0.00,meteohub,2013-12-20 02:46:00,
2013-12-19 20:51:00,65.8,60.3,30.04,SE,141,4.0,9.0,82,0.00,,,0.00,meteohub,2013-12-20 02:51:00,
2013-12-19 20:56:00,65.8,60.3,30.04,ESE,115,2.0,9.0,82,0.00,,,0.00,meteohub,2013-12-20 02:56:00,
2013-12-19 21:01:00,65.8,60.3,30.03,ESE,123,4.0,9.0,82,0.00,,,0.00,meteohub,2013-12-20 03:01:00,
2013-12-19 21:06:00,65.8,60.3,30.03,SE,132,4.0,8.0,82,0.00,,,0.00,meteohub,2013-12-20 03:06:00,
2013-12-19 21:11:00,65.8,60.3,30.03,ESE,121,5.0,13.0,82,0.00,,,0.00,meteohub,2013-12-20 03:11:00,
2013-12-19 21:16:00,65.8,60.3,30.03,SE,130,5.0,13.0,82,0.00,,,0.00,meteohub,2013-12-20 03:16:00,
2013-12-19 21:21:00,65.8,60.3,30.03,SE,131,5.0,13.0,82,0.00,,,0.00,meteohub,2013-12-20 03:21:00,
2013-12-19 21:26:00,66.0,60.4,30.03,ESE,119,5.0,11.0,82,0.00,,,0.00,meteohub,2013-12-20 03:26:00,
2013-12-19 21:31:00,66.0,60.4,30.03,ESE,121,4.0,12.0,82,0.00,,,0.00,meteohub,2013-12-20 03:31:00,
2013-12-19 21:36:00,66.0,60.1,30.03,SSE,148,2.0,12.0,81,0.00,,,0.00,meteohub,2013-12-20 03:36:00,
2013-12-19 21:41:00,66.0,60.1,30.03,ESE,119,1.0,12.0,81,0.00,,,0.00,meteohub,2013-12-20 03:41:00,
2013-12-19 21:46:00,66.2,60.3,30.03,SE,138,4.0,11.0,81,0.00,,,0.00,meteohub,2013-12-20 03:46:00,
2013-12-19 21:51:00,66.2,60.3,30.03,SE,124,4.0,10.0,81,0.00,,,0.00,meteohub,2013-12-20 03:51:00,
2013-12-19 21:56:00,66.0,60.1,30.03,SE,127,4.0,10.0,81,0.00,,,0.00,meteohub,2013-12-20 03:56:00,
2013-12-19 22:01:00,66.0,60.1,30.02,ESE,116,1.0,9.0,81,0.00,,,0.00,meteohub,2013-12-20 04:01:00,
2013-12-19 22:06:00,66.0,60.1,30.02,SE,138,5.0,10.0,81,0.00,,,0.00,meteohub,2013-12-20 04:06:00,
2013-12-19 22:11:00,66.2,60.3,30.03,SE,128,7.0,10.0,81,0.00,,,0.00,meteohub,2013-12-20 04:11:00,
2013-12-19 22:17:00,66.2,60.3,30.03,SE,134,5.0,11.0,81,0.00,,,0.00,meteohub,2013-12-20 04:17:00,
2013-12-19 22:22:00,66.0,60.1,30.03,SE,124,2.0,11.0,81,0.00,,,0.00,meteohub,2013-12-20 04:22:00,
2013-12-19 22:27:00,66.0,60.4,30.02,ESE,123,2.0,11.0,82,0.00,,,0.00,meteohub,2013-12-20 04:27:00,
2013-12-19 22:32:00,65.8,60.3,30.02,ESE,112,2.0,11.0,82,0.00,,,0.00,meteohub,2013-12-20 04:32:00,
2013-12-19 22:37:00,65.8,60.3,30.02,SE,130,1.0,10.0,82,0.00,,,0.00,meteohub,2013-12-20 04:37:00,
2013-12-19 22:42:00,65.8,60.3,30.02,SE,132,2.0,9.0,82,0.00,,,0.00,meteohub,2013-12-20 04:42:00,
2013-12-19 22:47:00,65.8,60.3,30.02,ESE,116,1.0,9.0,82,0.00,,,0.00,meteohub,2013-12-20 04:47:00,
2013-12-19 22:52:00,65.8,60.3,30.02,ESE,120,4.0,9.0,82,0.00,,,0.00,meteohub,2013-12-20 04:52:00,
2013-12-19 22:57:00,65.8,60.6,30.02,ESE,120,6.0,9.0,83,0.00,,,0.00,meteohub,2013-12-20 04:57:00,
2013-12-19 23:01:00,65.8,60.6,30.02,ESE,123,4.0,9.0,83,0.00,,,0.00,meteohub,2013-12-20 05:01:00,
2013-12-19 23:02:00,65.8,60.6,30.02,ESE,123,2.0,9.0,83,0.00,,,0.00,meteohub,2013-12-20 05:02:00,
2013-12-19 23:03:00,65.8,60.6,30.02,SE,126,5.0,9.0,83,0.00,,,0.00,meteohub,2013-12-20 05:03:00,
2013-12-19 23:04:00,65.8,60.6,30.02,SE,132,5.0,9.0,83,0.00,,,0.00,meteohub,2013-12-20 05:04:00,
2013-12-19 23:07:00,65.8,60.6,30.01,SE,131,1.0,8.0,83,0.00,,,0.00,meteohub,2013-12-20 05:07:00,
2013-12-19 23:12:00,65.8,60.6,30.01,SE,126,4.0,8.0,83,0.00,,,0.00,meteohub,2013-12-20 05:12:00,
2013-12-19 23:17:00,65.7,60.4,30.00,SE,126,1.0,8.0,83,0.00,,,0.00,meteohub,2013-12-20 05:17:00,
2013-12-19 23:22:00,65.7,60.4,30.00,SE,142,4.0,8.0,83,0.00,,,0.00,meteohub,2013-12-20 05:22:00,
2013-12-19 23:27:00,65.5,60.3,30.00,SE,130,2.0,8.0,83,0.00,,,0.00,meteohub,2013-12-20 05:27:00,
2013-12-19 23:32:00,65.5,60.4,30.01,ESE,123,2.0,8.0,84,0.00,,,0.00,meteohub,2013-12-20 05:32:00,
2013-12-19 23:37:00,65.5,60.4,30.01,SE,132,4.0,8.0,84,0.00,,,0.00,meteohub,2013-12-20 05:37:00,
2013-12-19 23:42:00,65.5,60.4,30.00,ESE,116,7.0,8.0,84,0.00,,,0.00,meteohub,2013-12-20 05:42:00,
2013-12-19 23:47:00,65.5,60.4,29.99,SE,138,1.0,8.0,84,0.00,,,0.00,meteohub,2013-12-20 05:47:00,
2013-12-19 23:49:00,65.5,60.4,29.99,SE,130,5.0,8.0,84,0.00,,,0.00,meteohub,2013-12-20 05:49:00,
2013-12-19 23:54:00,65.7,60.6,29.99,SE,130,4.0,9.0,84,0.00,,,0.00,meteohub,2013-12-20 05:54:00,
2013-12-19 23:59:00,65.5,60.8,29.99,ESE,123,4.0,9.0,85,0.00,,,0.00,meteohub,2013-12-20 05:59:00,